Prague, Czech Republic

7:59 PM CET on January 22, 2017 (GMT +0100)
Ruzyne

Weather History for LKPR - November, 2012

Change the Weather History Date:

Thursday, November 15, 2012

  Actual Average Record
Temperature  
Mean Temperature 30 °F -  
Max Temperature 35 °F 39 °F 59 °F (2006)
Min Temperature 25 °F 29 °F 21 °F (2011)
Degree Days  
Heating Degree Days 35    
Moisture  
Dew Point 32 °F    
Average Humidity 97    
Maximum Humidity 100    
Minimum Humidity 87    
Precipitation  
Precipitation 0.00 in 0.04 in - ()
Sea Level Pressure  
Sea Level Pressure 30.26 in    
Wind  
Wind Speed 3 mph ()    
Max Wind Speed 6 mph    
Max Gust Speed -    
Visibility 0.9 miles    
Events Fog    
Averages and records for this station are not official NWS values.
T = Trace of Precipitation, MM = Missing Value Source: Averaged Metar Reports

Daily Weather History Graph

Daily Weather History Graph

Search for Another Location

Airport or City:

Trip Planner

Search our weather history database for the weather conditions in past years. The results will help you decide how hot, cold, wet, or windy it might be!

Date:

Astronomy

Nov. 15, 2012 Rise Set
Actual Time 7:16 AM CET 4:18 PM CET
Civil Twilight 6:40 AM CET 4:53 PM CET
Nautical Twilight 6:01 AM CET 5:33 PM CET
Astronomical Twilight 5:23 AM CET 6:11 PM CET
Moon 9:01 AM CET (11/15) 5:43 PM CET (11/15)
Length of Visible Light 10h 13m
Length of Day
9h 01m
Waxing Crescent, 4% of the Moon is Illuminated
Nov 15
Waxing Crescent
Nov 20
First Quarter
Nov 28
Full
Dec 6
Last Quarter
Dec 13
New

Hourly Weather History & Observations

Time (CET) Temp. Windchill Dew Point Humidity Pressure Visibility Wind Dir Wind Speed Gust Speed Precip Events Conditions
12:00 AM 28.4 °F - 28.4 °F 100% 30.36 in 0.2 mi Variable 2.3 mph - N/A Fog Light Freezing Fog
12:30 AM 28.4 °F - 26.6 °F 93% 30.36 in 0.2 mi Variable 1.2 mph - N/A Fog Light Freezing Fog
1:00 AM 28 °F - 27 °F 93% 30.44 in 0 mi East 2.2 mph - - Fog Heavy Fog
1:00 AM 28.4 °F - 26.6 °F 93% 30.36 in 0.2 mi Variable 2.3 mph - N/A Fog Light Freezing Fog
1:30 AM 28.4 °F - 26.6 °F 93% 30.33 in 0.2 mi Variable 2.3 mph - N/A Fog Light Freezing Fog
2:00 AM 28.4 °F - 26.6 °F 93% 30.33 in 0.2 mi Calm Calm - N/A Fog Light Freezing Fog
2:30 AM 28.4 °F - 26.6 °F 93% 30.33 in 0.2 mi Variable 2.3 mph - N/A Fog Light Freezing Fog
3:00 AM 28.4 °F 23.3 °F 28.4 °F 100% 30.33 in 0.2 mi NNE 4.6 mph - N/A Fog Light Freezing Fog
3:30 AM 30.2 °F 26.7 °F 28.4 °F 93% 30.30 in 0.2 mi NE 3.5 mph - N/A Fog Light Freezing Fog
4:00 AM 30.2 °F 25.4 °F 30.2 °F 100% 30.30 in 0.2 mi NE 4.6 mph - N/A Fog Light Freezing Fog
4:30 AM 30.2 °F 25.4 °F 30.2 °F 100% 30.30 in 0.1 mi ENE 4.6 mph - N/A Fog Light Freezing Fog
4:47 AM 30.2 °F 25.4 °F 28.4 °F 93% 30.30 in 0.2 mi NE 4.6 mph - N/A Fog Light Freezing Fog
5:00 AM 30.2 °F 25.4 °F 30.2 °F 100% 30.30 in 0.2 mi NE 4.6 mph - N/A Fog Light Freezing Fog
5:14 AM 30.2 °F 26.7 °F 30.2 °F 100% 30.30 in 0.2 mi North 3.5 mph - N/A Fog Light Freezing Fog
5:23 AM 30.2 °F 25.4 °F 30.2 °F 100% 30.30 in 0.1 mi NNE 4.6 mph - N/A Fog Light Freezing Fog
5:30 AM 30.2 °F 25.4 °F 30.2 °F 100% 30.30 in 0.2 mi NE 4.6 mph - N/A Fog Light Freezing Fog
6:00 AM 30.2 °F 26.7 °F 28.4 °F 93% 30.30 in 0.2 mi North 3.5 mph - N/A Fog Light Freezing Fog
6:04 AM 30.2 °F 26.7 °F 28.4 °F 93% 30.30 in 0.2 mi North 3.5 mph - N/A Fog Light Freezing Fog
6:30 AM 30.2 °F 26.7 °F 28.4 °F 93% 30.30 in 0.2 mi ENE 3.5 mph - N/A Fog Light Freezing Fog
7:00 AM 30 °F - 29 °F 95% 30.38 in 0 mi East 4.5 mph - - Fog Heavy Fog
7:00 AM 30.2 °F 25.4 °F 30.2 °F 100% 30.30 in 0.2 mi ENE 4.6 mph - N/A Fog Light Freezing Fog
7:15 AM 30.2 °F 25.4 °F 30.2 °F 100% 30.30 in 0.1 mi East 4.6 mph - N/A Fog Light Freezing Fog
7:30 AM 30.2 °F - 30.2 °F 100% 30.30 in 0.1 mi Variable 2.3 mph - N/A Fog Light Freezing Fog
8:00 AM 30.2 °F 26.7 °F 30.2 °F 100% 30.30 in 0.1 mi ESE 3.5 mph - N/A Fog Light Freezing Fog
8:30 AM 32.0 °F - 30.2 °F 93% 30.30 in 0.2 mi Variable 2.3 mph - N/A Fog Light Freezing Fog
8:44 AM 32.0 °F - 30.2 °F 93% 30.30 in 0.2 mi Variable 2.3 mph - N/A Fog Light Freezing Fog
9:00 AM 32.0 °F - 30.2 °F 93% 30.30 in 0.2 mi Variable 2.3 mph - N/A Fog Light Freezing Fog
9:15 AM 32.0 °F - 30.2 °F 93% 30.30 in 0.2 mi Variable 1.2 mph - N/A Fog Light Freezing Fog
9:31 AM 32.0 °F - 32.0 °F 100% 30.30 in 0.3 mi Variable 1.2 mph - N/A Fog Light Freezing Fog
9:37 AM 32.0 °F - 32.0 °F 100% 30.30 in 0.3 mi Calm Calm - N/A Fog Light Freezing Fog
10:00 AM 32.0 °F - 32.0 °F 100% 30.30 in 0.3 mi Variable 1.2 mph - N/A Fog Light Freezing Fog
10:30 AM 32.0 °F - 32.0 °F 100% 30.27 in 0.3 mi Variable 2.3 mph - N/A Fog Light Freezing Fog
10:41 AM 32.0 °F - 32.0 °F 100% 30.27 in 0.3 mi Variable 2.3 mph - N/A Fog Light Freezing Fog
10:45 AM 32.0 °F - 32.0 °F 100% 30.27 in 0.3 mi Variable 1.2 mph - N/A Fog Fog
10:54 AM 32.0 °F - 32.0 °F 100% 30.27 in 0.3 mi Variable 2.3 mph - N/A Fog Fog
11:01 AM 32.0 °F - 32.0 °F 100% 30.27 in 0.4 mi Variable 2.3 mph - N/A Fog Fog
11:21 AM 32.0 °F - 32.0 °F 100% 30.27 in 0.6 mi Variable 2.3 mph - N/A Fog Patches of Fog
11:30 AM 32.0 °F - 32.0 °F 100% 30.27 in 0.5 mi Variable 2.3 mph - N/A Fog Patches of Fog
12:01 PM 33.8 °F 30.8 °F 32.0 °F 93% 30.24 in 0.4 mi NE 3.5 mph - N/A   Overcast
12:10 PM 33.8 °F - 32.0 °F 93% 30.24 in 0.4 mi Variable 2.3 mph - N/A   Overcast
12:19 PM 33.8 °F 30.8 °F 32.0 °F 93% 30.24 in 0.4 mi NNE 3.5 mph - N/A   Overcast
12:30 PM 33.8 °F 30.8 °F 32.0 °F 93% 30.24 in 0.5 mi NE 3.5 mph - N/A Fog Patches of Fog
1:00 PM 33 °F - 33 °F 99% 30.31 in 1 mi East 2.2 mph - - Fog Light Fog
1:00 PM 33.8 °F 30.8 °F 32.0 °F 93% 30.24 in 0.7 mi ENE 3.5 mph - N/A   Overcast
1:14 PM 33.8 °F - 33.8 °F 100% 30.24 in 1.2 mi Variable 2.3 mph - N/A   Overcast
1:30 PM 33.8 °F - 33.8 °F 100% 30.24 in 1.6 mi Variable 2.3 mph - N/A   Overcast
2:00 PM 33.8 °F - 33.8 °F 100% 30.24 in 1.9 mi Calm Calm - N/A   Overcast
2:30 PM 35.6 °F - 33.8 °F 93% 30.21 in 1.9 mi Variable 2.3 mph - N/A   Mostly Cloudy
3:00 PM 35.6 °F - 33.8 °F 93% 30.21 in 1.9 mi Variable 2.3 mph - N/A   Overcast
3:30 PM 35.6 °F - 33.8 °F 93% 30.21 in 3.1 mi Variable 2.3 mph - N/A   Overcast
4:00 PM 35.6 °F 32.8 °F 33.8 °F 93% 30.21 in 2.8 mi South 3.5 mph - N/A   Overcast
4:30 PM 35.6 °F 32.8 °F 33.8 °F 93% 30.21 in 3.1 mi WSW 3.5 mph - N/A   Overcast
4:40 PM 35.6 °F 32.8 °F 33.8 °F 93% 30.21 in 2.5 mi NNW 3.5 mph - N/A   Overcast
5:00 PM 35.6 °F 32.8 °F 33.8 °F 93% 30.21 in 2.2 mi NNW 3.5 mph - N/A   Overcast
5:30 PM 35.6 °F - 32.0 °F 87% 30.21 in 3.1 mi West 2.3 mph - N/A   Overcast
5:41 PM 35.6 °F 32.8 °F 32.0 °F 87% 30.21 in 3.1 mi WNW 3.5 mph - N/A   Overcast
6:00 PM 35.6 °F 32.8 °F 33.8 °F 93% 30.21 in 3.1 mi NNW 3.5 mph - N/A Fog Patches of Fog
6:12 PM 33.8 °F 29.6 °F 32.0 °F 93% 30.21 in 0.7 mi North 4.6 mph - N/A Fog Patches of Fog
6:20 PM 33.8 °F 29.6 °F 32.0 °F 93% 30.21 in 0.7 mi North 4.6 mph - N/A Fog Patches of Fog
6:30 PM 33.8 °F 30.8 °F 33.8 °F 100% 30.21 in 1.2 mi Variable 3.5 mph - N/A Fog Patches of Fog
6:46 PM 33.8 °F 30.8 °F 33.8 °F 100% 30.21 in 1.2 mi NNE 3.5 mph - N/A   Overcast
7:00 PM 34 °F - 33 °F 96% 30.29 in 1 mi NE 4.5 mph - -   Mist
7:00 PM 33.8 °F 30.8 °F 33.8 °F 100% 30.21 in 1.2 mi NE 3.5 mph - N/A   Mostly Cloudy
7:08 PM 33.8 °F 30.8 °F 33.8 °F 100% 30.21 in 1.2 mi NNE 3.5 mph - N/A   Overcast
7:22 PM 33.8 °F 30.8 °F 33.8 °F 100% 30.21 in 1.1 mi NNE 3.5 mph - N/A Fog Patches of Fog
7:30 PM 33.8 °F 30.8 °F 33.8 °F 100% 30.21 in 1.1 mi NE 3.5 mph - N/A   Overcast
7:45 PM 33.8 °F - 33.8 °F 100% 30.21 in 1.1 mi Variable 2.3 mph - N/A Fog Patches of Fog
8:00 PM 33.8 °F 30.8 °F 33.8 °F 100% 30.21 in 1.1 mi NE 3.5 mph - N/A   Overcast
8:30 PM 33.8 °F 30.8 °F 33.8 °F 100% 30.21 in 1.2 mi NNW 3.5 mph - N/A   Overcast
9:00 PM 33.8 °F - 33.8 °F 100% 30.21 in 1.9 mi Variable 2.3 mph - N/A   Overcast
9:30 PM 33.8 °F - 33.8 °F 100% 30.21 in 1.6 mi Variable 2.3 mph - N/A   Overcast
10:00 PM 33.8 °F 30.8 °F 33.8 °F 100% 30.21 in 1.6 mi NNW 3.5 mph - N/A   Overcast
10:30 PM 33.8 °F 30.8 °F 33.8 °F 100% 30.18 in 1.6 mi North 3.5 mph - N/A   Overcast
11:00 PM 33.8 °F - 33.8 °F 100% 30.18 in 1.5 mi Variable 1.2 mph - N/A   Overcast
11:21 PM 33.8 °F 29.6 °F 33.8 °F 100% 30.18 in 1.7 mi East 4.6 mph - N/A   Overcast
11:30 PM 33.8 °F 29.6 °F 33.8 °F 100% 30.18 in 1.4 mi East 4.6 mph - N/A   Overcast
11:36 PM 33.8 °F 28.6 °F 33.8 °F 100% 30.18 in 1.2 mi East 5.8 mph - N/A   Overcast